Flag for India Weather past 2 weeks in Chandigarh, Chandigarh, India

Now
73 °F

Fog.


Feels Like: 68 °F
Forecast: 67 / 95 °F
Wind: No wind

Location: Amritsar Airport

Current Time: Sep 17, 2014 at 5:59:40 AM

Latest Report: Sep 17, 2014 at 5:00 AM


Visibility: 2 mi

Pressure: 29.59 "Hg

Humidity: 100%

Dew point: 73 °F

Location of ChandigarhLocation

Historic Weather in Chandigarh — Graph

°F

Chandigarh temperature yesterday

Maximum temperature yesterday: 93 °F (at 5:00 PM)
Minimum temperature yesterday: 73 °F (at 5:00 AM)
Average temperature yesterday: 82 °F

Past Weeks' High & Low Weather Summary

 TemperatureHumidityPressure
High93 °F (Sep 11, 3:00 PM)100% (Sep 2, 5:30 AM)29.80 "Hg (Sep 2, 5:30 AM)
Low73 °F (Sep 3, 6:30 PM)49% (Sep 15, 3:30 PM)29.42 "Hg (Sep 5, 8:00 PM)
Average81 °F88%29.67 "Hg
* Reported Sep 2 5:30 AM — Sep 17 4:30 AM, Chandigarh, Weather by CustomWeather, © 2014

Note: Actual official high and low records may vary slightly from our data, if they occured in-between our weather recording intervals... More about our weather records

Advertising

Chandigarh weather history for previous 24 hours

 ConditionsComfort  
Time TempWeatherWind HumidityBarometerVisibility
4:30 AM
Sep 17
75 °FFog.No wind100%29.59 "Hg1 mi
3:30 AM75 °FFog.No wind100%29.62 "Hg1 mi
3:00 AM77 °FFog.No wind100%29.62 "Hg1 mi
2:30 AM77 °FFog.No wind100%29.62 "Hg1 mi
2:00 AM79 °FFog.No wind94%29.62 "Hg1 mi
1:30 AM79 °FFog.No wind94%29.62 "Hg2 mi
1:00 AM79 °FFog.No wind94%29.62 "Hg2 mi
12:30 AM81 °FFog.No wind94%29.62 "Hg2 mi
11:30 PM
Sep 16
81 °FFog.No wind94%29.62 "Hg2 mi
11:00 PM82 °FFog.No wind84%29.62 "Hg2 mi
10:30 PM82 °FFog.No wind84%29.62 "Hg2 mi
10:00 PM82 °FFog.No wind84%29.62 "Hg2 mi
9:30 PM84 °FFog.No wind79%29.62 "Hg2 mi
9:00 PM84 °FFog.No wind79%29.62 "Hg2 mi
8:30 PM84 °FFog.No wind79%29.62 "Hg2 mi
8:00 PM86 °FHaze.No wind66%29.62 "Hg2 mi
7:30 PM86 °FHaze.2 mph66%29.62 "Hg2 mi
6:30 PM88 °FHaze.No wind59%29.62 "Hg3 mi
5:30 PM90 °FScattered clouds.2 mph55%29.62 "Hg3 mi
5:00 PM93 °FHaze.3 mph53%29.62 "Hg3 mi
4:30 PM91 °FHaze.3 mph56%29.62 "Hg3 mi
4:00 PM91 °FHaze.3 mph56%29.65 "Hg3 mi
3:30 PM91 °FHaze.3 mph56%29.65 "Hg3 mi
3:00 PM91 °FScattered clouds.3 mph56%29.65 "Hg3 mi
2:00 PM90 °FScattered clouds.No wind63%29.65 "Hg2 mi
1:30 PM90 °FScattered clouds.5 mph59%29.68 "Hg2 mi
12:30 PM88 °FScattered clouds.6 mph62%29.68 "Hg2 mi
12:00 PM88 °FScattered clouds.6 mph66%29.71 "Hg2 mi
11:00 AM86 °FScattered clouds.3 mph70%29.71 "Hg2 mi
10:30 AM86 °FHaze.5 mph70%29.71 "Hg2 mi
10:00 AM84 °FHaze.5 mph70%29.74 "Hg2 mi
9:30 AM82 °FFog.3 mph70%29.74 "Hg2 mi
9:00 AM82 °FFog.3 mph70%29.71 "Hg2 mi
8:30 AM81 °FFog.5 mph79%29.71 "Hg2 mi
7:30 AM75 °FFog.2 mph94%29.68 "Hg1 mi
7:00 AM73 °FFog.No wind100%29.68 "Hg1 mi
6:30 AM73 °FFog.No wind100%29.68 "Hg1 mi
6:00 AM73 °FFog.No wind100%29.65 "Hg1 mi
5:30 AM73 °FFog.No wind100%29.65 "Hg1 mi
5:00 AM73 °FFog.No wind100%29.65 "Hg1 mi
Weather by CustomWeather, © 2014

See weather overviewHow to use our weather pages